User: anonymous   Login
Location: Unspecified
(48.7670°N, 0.0000°E)
Time: 13:48:14
(UTC+00:00)
Language:

Transit 4A - Orbit

View from above orbital plane
View from above orbital plane
View from above satellite
View from above satellite

Ground track
Ground track

The orbit data is extracted from the following two-line orbital elements,

1   116U 61015A   19176.96248177 -.00000061  00000-0  11978-4 0  9997
2   116  66.8104   2.1269 0082642 260.3484  98.8252 13.91753960942557
Epoch (UTC): 25 June 2019 23:05:58
Eccentricity: 0.0082642
inclination: 66.8104°
perigee height: 862 km
apogee height: 983 km
right ascension of ascending node: 2.1269°
argument of perigee: 260.3484°
revolutions per day: 13.91753960
mean anomaly at epoch: 98.8252°
orbit number at epoch: 94255

The dashed part of the orbit path shows where the satellite is in the earth's shadow,  

DLR